Погода в Панфилове

Погода в Панфилове : погода сейчас, прогноз погоды и архив. Всё, что Вы хотите узнать о погоде в Панфилове!

Хотите узнать прогноз погоды в Панфилове? Тогда Вам сюда: Погода в Панфилове

Поиск расширенной информации на нашем сайте:

Другие новости

Новости СМИ2

Главная страница сайта

Новости сайта

03.07.2017

Напоминаем, что на нашем специализированном сайте Метеоцентр.Азия вы можете получить высокодетализированные автоматические прогнозы погоды по пунктам России, СНГ и мира в авиационном формате (включающие направление и скорость ветра, видимость, явления погоды, количество и форму облачности, нижнюю и верхнюю границу облачности).


Погода в Панфилове - сегодня

Время (UTC), дата Ветер
(°,м/с) 
Видим.   Явления Облачность Т
(°С)
Тd
(°С)
f(%) Тe
(°С)
Pmin
(гПа)
dP
(гПа)
Po
(мм)
O2
(г/м3)
Тmin Tmax R s Состояние
почвы
12 20.10.17 010 (С) 20000 м    4/0 средняя 
[Ac lent]
+12.2 +3.4 55 +13  1028.6  -1.5  715  275           
15 20.10.17 тихо ()   н/о    ясно 
+8.6 +2.7 66 +9  1027.5  -1.9  713  278    +14.3       
18 20.10.17 тихо ()   н/о    ясно 
+9 +1.5 59 +9  1023.9  -3.3  711  277    +14.3       
21 20.10.17 тихо ()   н/о    ясно 
+6.4 +1.1 69 +6  1021.4  -3  709  279           
00 21.10.17 тихо () {07}  н/о    ясно 
+5 +0.6 73 +5  1019.7  -1.9  707  280           
03 21.10.17 тихо ()   20000 м    ясно 
+7.7 +2.5 70 +8  1018.2  -0.6  707  276  +3.5        влажная 
06 21.10.17 110 (В) 20000 м    3/0 верхняя 
[Ci fib]
+17.4 -0.9 29 +18  1013.6  -1.9  705  267  +3.5         
09 21.10.17 110 (В) 20000 м    4/0 средняя, верхняя 
[Ac lent|Ci fib]
+22 +0.4 24 +22  1010  -2.8  703  262           
12 21.10.17 тихо ()   20000 м    8/0 средняя, верхняя 
[Ac lent|Cs]
+14.4 +4.8 52 +14  1010.9  -0.3  703  268           
15 21.10.17 тихо ()   н/о    9/0 средняя, верхняя 
[Ac lent|Ci fib]
+9 +2.7 65 +9  1013.5  0.9  704  274    +22       
18 21.10.17 тихо ()   н/о    3/0 средняя 
[Ac lent]
+7.1 +2.3 71 +7  1015.3  1.2  705  276    +22       
21 21.10.17 090 (В) н/о    ясно 
+5.8 +1 71 +7  1017.1  1.3  706  278           
00 22.10.17 110 (В) 2{07}  н/о    ясно 
+4.8 +1.5 79 +4  1019.1  1.6  707  280    +0.1       
03 22.10.17 тихо ()   20000 м    8/0 средняя, верхняя 
[Ac lent|Cs]
+8 +2.5 68 +8  1020.6  2.2  708  277           
06 22.10.17 130 (ЮВ) 20000 м    4/0 средняя 
[Ac lent]
+13.8 +4 52 +14  1019.8  0.8  709  271  +4.4         
09 22.10.17 160 (Ю) 20000 м    4/0 средняя 
[Ac lent]
+17 +3 39 +18  1017.7  -1.2  708  268           
12 22.10.17 тихо ()   20000 м    4/0 средняя 
[Ac lent]
+14.2 +4 50 +14  1018.9  0.4  708  271           
15 22.10.17 060 (СВ) н/о    ясно 
+10.6 +6.5 76 +12  1020.7  0.8  709  274    +17       
18 22.10.17 020 (С) н/о    ясно 
+9 +2.1 62 +10  1020.6  -0.5  709  276    +17       
21 22.10.17 350 (С) н/о    ясно 
+8 +1.9 65 +9  1019.8  -1  708  277           
00 23.10.17 330 (СЗ) 1{08}  н/о    ясно 
+6.6 +1.4 69 +8  1019.6  -0.6  707  278    +0.3       
03 23.10.17 тихо ()   20000 м    4/0 средняя, верхняя 
[Ac lent|Ci fib]
+8.7 +0.9 58 +9  1018.8  -0.1  707  276  +3.5        сухая 
06 23.10.17 190 (Ю) 20000 м    4/0 средняя, верхняя 
[Ac lent|Ci fib]
+17 +3 39 +18  1014.9  -1.6  706  267  +3.5         
09 23.10.17 тихо ()   20000 м    9/0 средняя, верхняя 
[Ac lent|Cs]
+19.6 +2.7 33 +20  1011.7  -2.3  704  264           
12 23.10.17 тихо ()   20000 м    9/0 средняя, верхняя 
[Ac lent|Cs]
+14.8 +4.3 49 +15  1013.2  0.2  705  269           
Время (UTC), дата Ветер
(°,м/с) 
Видим.   Явления Облачность Т
(°С)
Тd
(°С)
f(%) Тe
(°С)
Pmin
(гПа)
dP
(гПа)
Po
(мм)
O2
(г/м3)
Тmin Tmax R s Состояние
почвы

Для получения пояснительной информации подведите курсор к названию столбца.

ПОГОДА в Панфилове - архив

Всё, что Вы хотите узнать о погоде в Панфилове - удобно и подробно!

Выберите нужную дату (начиная с 1 января 2015* года) и нажмите кнопку "Найти".
Будут отображены архивные сводки погоды по пункту Панфилов, начиная с указанной даты.


Отображать данные в формате CSV (для использования в таблицах Excel)


Внимание! Наш архив погоды предназначен исключительно для личного некоммерческого использования в познавательных целях. Если Вам необходимы официальные справки о состоянии погоды (для производственных, юридических, коммерческих и т.п. целей), обращайтесь в органы Росгидромета.

*Примечание: данная дата относится к архиву по метеостанциям СССР (Россия, СНГ, Балтия).
Архив по метеостанциям Зарубежной Европы и Азии (кроме Китая) хранится 10 дней, по другим регионам земного шара (Китай, Африка, Америка, Австралия, Океания) - 1 день.

Панфилов - район местоположения метеостанции


Название, широта, долгота, высота метеостанции:
Панфилов 44.2°ш. 80.1°д. 645 м над ур. моря [Казахстан]

Дополнительная информация

В oтличие oт бoльшинства пoгoдных сайтoв мы публикуем пoдрoбную метеoинфoрмацию в детальнoм прoфессиoнальнoм фoрмате.

Характеристики температуры и влажнoсти вoздуха измеряются на высoте 2 м в тени вдали oт зданий и деревьев.
Скoрoсть ветра измеряется на высoте 10 м (на урoвне рoста челoвека скoрoсть ветра ниже в 1.5-2 раза). Если метеoстанция нахoдится в гoрoде или в лесу, тo скoрoсть ветра занижена на 2-4 м/с пo сравнению с oткрытым местoм. Скoрoсть ветра над акватoриями крупных рек и oзёр, а также на вершинах хoлмoв на 2-5 м/с выше, чем в oбычных услoвиях.
Атмoсфернoе давление в разных тoчках местнoсти мoжет значительнo oтличаться oт давления на метеoстанции, в зависимoсти oт услoвий рельефа (при пoдъёме на 10 м давление пoнижается примернo на 1 мм рт.ст.).